ARIANE 40 R/B (22830 NORAD) Tracking and Keplerian Element Data

This shows tracking and keplerian element data for the satellite.

Feedback or suggestion? Click here.




ElementValue
Catalog22830
NameARIANE 40 R/B
Epoch Orbit63698
Epoch Day34.78389188
Epoch Year2025
RAAN105.4132
Inclination98.5436
Eccentricity0.0011117
Argument of Perigee29.9921
Mean Anonmoly330.1898
Mean Motion14.32523773
Decay Rate5.37E-06
L11 22830U 93061H 25034.78389188 .00000537 00000+0 21403-3 0 9997
L22 22830 98.5436 105.4132 0011117 29.9921 330.1898 14.32523773636982



Live tracking and technical data element details for ARIANE 40 R/B (NORAD 22830). ARIANE 40 R/B can be tracked NOW for your location showing map with azimuth and elevation plus other details from your city location.







IsCatalogInMostPopularTable: catalog: 22830, numindb: 477
Update: records affected: 1



GetName: 22830 ARIANE 40 R/B

Hit Count: updated at: Fri, 16 May 2025 10:43:38 GMT